Location: Ingoldesthorpe
(52.8667°N, 0.5167°E)
Time: 00:34:26
(UTC+00:00)

Cosmos 1908 - Pass Details

Date: 19 May 2025
Orbit: 404 x 413 km, 82.5° (Epoch: 18 June)

Event Time Altitude Azimuth Distance (km) Brightness Sun altitude
Rises 23:01:39 0° 349° (N) 2,386 8.4 -16.3°
Reaches altitude 10° 23:03:43 10° 350° (N) 1,514 6.9 -16.3°
Maximum altitude 23:07:00 86° 78° (ENE) 426 2.7 -16.4°
Enters shadow 23:07:54 45° 165° (SSE) 579 3.0 -16.5°
